Photometre #853[NE_1.6_Dp] Rhyl_MO AOT

File : 20190926_853.hum

26/09/2019,07:06:17,TEMP=13.3,BA=5.56,STAT.A,ExtBa=12.80
26/09/2019,07:10:23,TEMP=13.6,BA=5.56,STAT.D,ExtBa=12.70
26/09/2019,07:12:39,TEMP=14.1,BA=5.56,STAT.A,ExtBa=12.60
26/09/2019,07:15:47,TEMP=14.1,BA=5.56,STAT.A,ExtBa=12.60
26/09/2019,07:18:23,TEMP=14.3,BA=5.56,STAT.D,ExtBa=12.60
26/09/2019,07:20:23,TEMP=14.5,BA=5.56,STAT.D,ExtBa=12.60
26/09/2019,07:22:22,TEMP=14.6,BA=5.56,STAT.A,ExtBa=12.60
26/09/2019,07:29:18,TEMP=14.2,BA=5.56,STAT.A,ExtBa=12.70
26/09/2019,07:38:29,TEMP=14.2,BA=5.52,STAT.A,ExtBa=12.70
26/09/2019,07:50:11,TEMP=14.3,BA=5.56,STAT.B,ExtBa=12.70
26/09/2019,07:55:50,TEMP=14.6,BA=5.56,STAT.A,ExtBa=12.70
26/09/2019,08:02:11,TEMP=14.8,BA=5.60,STAT.A,ExtBa=12.70
26/09/2019,08:09:24,TEMP=15.0,BA=5.60,STAT.A,ExtBa=12.70
26/09/2019,08:17:42,TEMP=15.2,BA=5.56,STAT.A,ExtBa=12.70
26/09/2019,08:27:20,TEMP=15.2,BA=5.60,STAT.C,ExtBa=12.70
26/09/2019,08:38:24,TEMP=15.2,BA=5.60,STAT.D,ExtBa=13.00
26/09/2019,08:40:24,TEMP=15.8,BA=5.64,STAT.A,ExtBa=13.00
26/09/2019,08:44:24,TEMP=16.0,BA=5.64,STAT.D,ExtBa=13.20
26/09/2019,08:46:24,TEMP=16.6,BA=5.64,STAT.D,ExtBa=13.20
26/09/2019,08:48:24,TEMP=16.9,BA=5.64,STAT.D,ExtBa=13.20
26/09/2019,08:52:24,TEMP=17.0,BA=5.60,STAT.D,ExtBa=13.10
26/09/2019,08:54:22,TEMP=17.4,BA=5.60,STAT.A,ExtBa=13.00
26/09/2019,09:06:06,TEMP=16.8,BA=5.64,STAT.F,ExtBa=13.30
26/09/2019,09:29:47,TEMP=17.8,BA=5.60,STAT.b=4.0
26/09/2019,09:30:24,TEMP=17.8,BA=5.60,STAT.b=4.0
26/09/2019,09:32:23,TEMP=17.6,BA=5.60,STAT.D,ExtBa=13.10
26/09/2019,09:34:24,TEMP=18.0,BA=5.60,STAT.D,ExtBa=13.20
26/09/2019,09:36:22,TEMP=18.2,BA=5.60,STAT.D,ExtBa=13.30
26/09/2019,09:42:48,TEMP=18.1,BA=5.64,STAT.D,ExtBa=13.50
26/09/2019,09:46:24,TEMP=18.3,BA=5.64,STAT.D,ExtBa=13.50
26/09/2019,09:50:24,TEMP=18.4,BA=5.68,STAT.D,ExtBa=13.50
26/09/2019,09:52:21,TEMP=18.8,BA=5.68,STAT.D,ExtBa=13.50
26/09/2019,09:56:24,TEMP=18.6,BA=5.68,STAT.D,ExtBa=13.40
26/09/2019,09:58:24,TEMP=19.0,BA=5.68,STAT.D,ExtBa=13.40
26/09/2019,10:02:24,TEMP=18.6,BA=5.64,STAT.D,ExtBa=13.20
26/09/2019,10:04:24,TEMP=18.7,BA=5.64,STAT.D,ExtBa=13.20
26/09/2019,10:06:24,TEMP=18.6,BA=5.64,STAT.F,ExtBa=13.10
26/09/2019,10:12:24,TEMP=17.9,BA=5.68,STAT.D,ExtBa=13.50
26/09/2019,10:14:24,TEMP=18.4,BA=5.68,STAT.D,ExtBa=13.50
26/09/2019,10:16:24,TEMP=18.7,BA=5.68,STAT.D,ExtBa=13.50
26/09/2019,10:20:24,TEMP=18.5,BA=5.68,STAT.D,ExtBa=13.40
26/09/2019,10:22:22,TEMP=18.9,BA=5.68,STAT.D,ExtBa=13.30
26/09/2019,10:26:24,TEMP=18.4,BA=5.68,STAT.D,ExtBa=13.20
26/09/2019,10:30:24,TEMP=18.2,BA=5.68,STAT.D,ExtBa=13.20
26/09/2019,10:32:24,TEMP=18.4,BA=5.68,STAT.D,ExtBa=13.20
26/09/2019,10:36:05,TEMP=18.1,BA=5.68,STAT.D,ExtBa=13.60
26/09/2019,10:38:24,TEMP=18.5,BA=5.68,STAT.D,ExtBa=13.40
26/09/2019,10:40:24,TEMP=18.7,BA=5.68,STAT.D,ExtBa=13.40
26/09/2019,10:42:24,TEMP=18.8,BA=5.68,STAT.D,ExtBa=13.30
26/09/2019,10:44:24,TEMP=18.8,BA=5.68,STAT.D,ExtBa=13.30
26/09/2019,10:46:24,TEMP=18.8,BA=5.68,STAT.D,ExtBa=13.30
26/09/2019,10:48:24,TEMP=18.9,BA=5.68,STAT.D,ExtBa=13.30
26/09/2019,10:50:24,TEMP=18.8,BA=5.68,STAT.D,ExtBa=13.40
26/09/2019,10:52:21,TEMP=18.8,BA=5.68,STAT.D,ExtBa=13.50
26/09/2019,10:59:00,TEMP=18.0,BA=5.68,STAT.D,ExtBa=13.50
26/09/2019,11:02:24,TEMP=17.8,BA=5.64,STAT.D,ExtBa=13.60
26/09/2019,11:04:24,TEMP=18.0,BA=5.64,STAT.D,ExtBa=13.60
26/09/2019,11:06:23,TEMP=18.0,BA=5.64,STAT.F,ExtBa=13.50
26/09/2019,11:29:32,TEMP=18.0,BA=5.64,STAT.b=4.0
26/09/2019,11:30:09,TEMP=18.0,BA=5.64,STAT.b=4.0
26/09/2019,11:32:23,TEMP=17.6,BA=5.64,STAT.D,ExtBa=13.30
26/09/2019,11:34:24,TEMP=17.8,BA=5.64,STAT.D,ExtBa=13.20
26/09/2019,11:36:22,TEMP=17.8,BA=5.64,STAT.D,ExtBa=13.20
26/09/2019,11:46:24,TEMP=16.6,BA=5.68,STAT.D,ExtBa=13.40
26/09/2019,11:48:24,TEMP=16.9,BA=5.68,STAT.D,ExtBa=13.60
26/09/2019,11:51:05,TEMP=17.1,BA=5.64,STAT.D,ExtBa=13.60
26/09/2019,11:57:30,TEMP=16.9,BA=5.64,STAT.D,ExtBa=13.60
26/09/2019,12:00:24,TEMP=17.2,BA=5.68,STAT.D,ExtBa=13.60
26/09/2019,12:02:24,TEMP=17.6,BA=5.68,STAT.D,ExtBa=13.30
26/09/2019,12:06:07,TEMP=17.3,BA=5.68,STAT.F,ExtBa=13.20
26/09/2019,12:18:24,TEMP=16.0,BA=5.68,STAT.D,ExtBa=13.30
26/09/2019,12:21:05,TEMP=16.2,BA=5.68,STAT.D,ExtBa=13.30
26/09/2019,12:32:24,TEMP=16.2,BA=5.68,STAT.D,ExtBa=13.60
26/09/2019,12:36:05,TEMP=16.7,BA=5.68,STAT.D,ExtBa=13.50
26/09/2019,12:38:24,TEMP=17.1,BA=5.68,STAT.D,ExtBa=13.50
26/09/2019,12:40:24,TEMP=17.4,BA=5.68,STAT.D,ExtBa=13.50
26/09/2019,12:42:24,TEMP=17.6,BA=5.68,STAT.D,ExtBa=13.50
26/09/2019,12:44:24,TEMP=17.8,BA=5.68,STAT.D,ExtBa=13.60
26/09/2019,12:46:24,TEMP=18.1,BA=5.68,STAT.D,ExtBa=13.40
26/09/2019,12:51:05,TEMP=17.8,BA=5.68,STAT.D,ExtBa=13.30
26/09/2019,13:02:24,TEMP=17.2,BA=5.68,STAT.D,ExtBa=13.20
26/09/2019,13:06:07,TEMP=17.2,BA=5.68,STAT.F,ExtBa=13.20
26/09/2019,13:18:24,TEMP=16.5,BA=5.68,STAT.D,ExtBa=13.20
26/09/2019,13:21:05,TEMP=16.5,BA=5.68,STAT.D,ExtBa=13.10
26/09/2019,13:32:24,TEMP=15.8,BA=5.68,STAT.D,ExtBa=13.10
26/09/2019,13:36:05,TEMP=15.9,BA=5.68,STAT.D,ExtBa=13.10
26/09/2019,13:48:24,TEMP=16.1,BA=5.68,STAT.D,ExtBa=13.30
26/09/2019,13:50:24,TEMP=16.6,BA=5.68,STAT.D,ExtBa=13.50
26/09/2019,13:52:22,TEMP=17.0,BA=5.68,STAT.D,ExtBa=13.40
26/09/2019,13:56:24,TEMP=17.2,BA=5.68,STAT.D,ExtBa=13.60
26/09/2019,13:58:24,TEMP=17.9,BA=5.68,STAT.D,ExtBa=13.40
26/09/2019,14:02:24,TEMP=18.0,BA=5.68,STAT.D,ExtBa=13.60
26/09/2019,14:06:07,TEMP=18.4,BA=5.68,STAT.F,ExtBa=13.60
26/09/2019,14:29:40,TEMP=19.6,BA=5.68,STAT.b=4.0
26/09/2019,14:30:17,TEMP=19.6,BA=5.68,STAT.b=4.0
26/09/2019,14:32:23,TEMP=19.1,BA=5.68,STAT.D,ExtBa=13.40
26/09/2019,14:34:24,TEMP=19.3,BA=5.68,STAT.D,ExtBa=13.30
26/09/2019,14:36:22,TEMP=19.1,BA=5.68,STAT.D,ExtBa=13.20
26/09/2019,14:48:24,TEMP=17.3,BA=5.68,STAT.D,ExtBa=13.20
26/09/2019,14:51:05,TEMP=17.4,BA=5.68,STAT.D,ExtBa=13.10
26/09/2019,15:02:24,TEMP=16.7,BA=5.68,STAT.D,ExtBa=13.20
26/09/2019,15:06:06,TEMP=16.9,BA=5.68,STAT.F,ExtBa=13.10
26/09/2019,15:18:24,TEMP=16.5,BA=5.68,STAT.D,ExtBa=13.10
26/09/2019,15:20:26,TEMP=16.9,BA=5.68,STAT.A,ExtBa=13.00
26/09/2019,15:32:23,TEMP=16.4,BA=5.68,STAT.D,ExtBa=13.00
26/09/2019,15:34:27,TEMP=16.7,BA=5.68,STAT.A,ExtBa=13.00
26/09/2019,15:44:52,TEMP=15.5,BA=5.68,STAT.C,ExtBa=13.00
26/09/2019,15:54:30,TEMP=15.4,BA=5.68,STAT.A,ExtBa=13.00
26/09/2019,16:02:48,TEMP=15.4,BA=5.68,STAT.A,ExtBa=13.00
26/09/2019,16:10:01,TEMP=15.4,BA=5.68,STAT.A,ExtBa=13.00
26/09/2019,16:16:22,TEMP=15.4,BA=5.64,STAT.A,ExtBa=13.00
26/09/2019,16:22:01,TEMP=15.4,BA=5.68,STAT.B,ExtBa=12.90
26/09/2019,16:33:43,TEMP=14.6,BA=5.68,STAT.A,ExtBa=13.00
26/09/2019,16:42:54,TEMP=14.1,BA=5.68,STAT.A,ExtBa=13.00
26/09/2019,16:50:18,TEMP=14.1,BA=5.60,STAT.A,ExtBa=12.90
26/09/2019,16:56:25,TEMP=14.1,BA=5.60,STAT.A,ExtBa=12.90
26/09/2019,17:01:33,TEMP=14.0,BA=5.64,STAT.A,ExtBa=12.90
26/09/2019,17:05:55,TEMP=13.9,BA=5.64,STAT.A,ExtBa=12.90